Location: Unspecified
(0.0000°N, 0.0000°E)
Time: 23:41:37
(UTC+00:00)

Tiangong - Pass Details

Date: 29 April 2025
Orbit: 377 x 386 km, 41.5° (Epoch: 16 May)

Event Time Altitude Azimuth Distance (km) Brightness Sun altitude
Rises 18:27:27 0° 312° (NW) 2,220 3.0 -7.3°
Reaches altitude 10° 18:29:30 10° 311° (NW) 1,373 1.8 -7.8°
Maximum altitude 18:32:36 79° 224° (SW) 385 -2.1 -8.5°
Drops below altitude 10° 18:35:42 10° 137° (SE) 1,382 0.2 -9.3°
Enters shadow 18:35:47 10° 137° (SE) 1,413 0.2 -9.3°
